Location: Bay Shore Mobile Home Park
(38.5762°N, 75.0841°W)
Time: 04:57:39
(UTC+00:00)

Hubble Space Telescope - Pass Details

Date: 26 January 2026
Orbit: 478 x 480 km, 28.5° (Epoch: 8 February)

Event Time Altitude Azimuth Distance (km) Brightness Sun altitude
Rises 00:14:58 0° 240° (WSW) 2,513 5.3 -23.5°
Reaches altitude 10° 00:17:42 10° 220° (SW) 1,636 3.8 -24.0°
Enters shadow 00:19:38 17° 189° (S) 1,278 2.8 -24.4°
